{"data":{"norad_id":60057,"epoch":"2026-05-25T02:43:54.313248Z","epoch_age_seconds":58404,"freshness":"FRESH","line1":"1 60057U 24112V   26145.11382307  .00001817  00000+0  73462-4 0  9993","line2":"2 60057  53.1599  83.2852 0001188  87.3696 272.7441 15.30189585110292","mean_motion":15.30189585,"eccentricity":0.0001188,"inclination_deg":53.1599,"raan_deg":83.2852,"arg_perigee_deg":87.3696,"mean_anomaly_deg":272.7441,"bstar":7.3462e-5,"rev_number":11029,"period_min":94.105986220002,"perigee_km":474.43198498816,"apogee_km":476.06034882862,"semimajor_km":6853.3831669084,"source":"CELESTRAK","updated_at":"2026-05-25T13:38:19.156097Z"}}